Terug naar catalogus

STARLINK-6173

ActiefCommunicatieVLEO
NORAD 56385·PAYLOAD·🇺🇸 United States

Gelanceerd May 4, 2023 vanaf Cape Canaveral Space Force Station

Loading…

Volgende Passages (komende 24 uur)

TLE

VersSource: CelesTrak SupGP

Epoch: Sep 15, 2026, 02:17 UTC

1 56385C 23061M   26258.09562500 -.00038125  00000+0 -13812-2 0  2584
2 56385  42.9996 208.3045 0001221 268.2325 178.1576 15.27590726    14

Volg STARLINK-6173 in realtime met AllMySat

Download on the App Store